• Processing (Info)

  • MPEC 2023-F92 : 2023 FT2

    The following Minor Planet Electronic Circular may be linked-to from your own Web pages, but must not otherwise be redistributed electronically.

    A form allowing access to any MPEC is at the bottom of this page.


    Read MPEC 2023-F91 Read MPEC 2023-F93


    M.P.E.C. 2023-F92                                Issued 2023 March 22, 01:11 UT
    
         The Minor Planet Electronic Circulars contain information on unusual
             minor planets, routine data on comets and natural satellites,
             and occasional editorial announcements.  They are published
        on behalf of Division F of the International Astronomical Union by the
              Minor Planet Center, Smithsonian Astrophysical Observatory,
                              Cambridge, MA 02138, U.S.A.
    			  
                 Prepared using the Tamkin Foundation Computer Network
    
                                  MPC@CFA.HARVARD.EDU
                URL https://www.minorplanetcenter.net/    ISSN 1523-6714
    
                                    2023 FT2                                 
    
    
    Observations:
         K23F02T* C2023 03 20.87485710 38 46.56 +27 31 46.1          19.8 RoEF092K88
         K23F02T  C2023 03 20.87701510 38 42.69 +27 31 17.1          19.7 RoEF092K88
         K23F02T KC2023 03 20.89827510 38 04.31 +27 26 26.5          19.8 RoEF092K88
         K23F02T KC2023 03 20.90080610 37 59.72 +27 25 52.1          19.8 RoEF092K88
         K23F02T KC2023 03 20.90460910 37 52.89 +27 24 59.9          20.1 RoEF092K88
         K23F02T KC2023 03 20.94056810 36 47.45 +27 16 37.2          19.4 RoEF092K88
         K23F02T KC2023 03 20.94373710 36 41.61 +27 15 52.1                oEF092K88
         K23F02T KC2023 03 20.95432510 36 27.13 +27 13 43.6          19.9 GXEF092I93
         K23F02T KC2023 03 20.95789410 36 20.54 +27 12 52.9          20.3 GXEF092I93
         K23F02T KC2023 03 20.96150010 36 13.88 +27 12 01.8          20.3 GXEF092I93
         K23F02T KC2023 03 20.97900910 35 37.96 +27 07 41.5          19.5 GVEF092L01
         K23F02T KC2023 03 20.98048710 35 35.21 +27 07 19.9          19.6 GVEF092L01
         K23F02T KC2023 03 20.98196710 35 32.47 +27 06 58.4          19.7 GVEF092L01
         K23F02T KC2023 03 20.98378410 35 29.11 +27 06 31.8          19.5 GVEF092L01
         K23F02T KC2023 03 20.98560210 35 25.76 +27 06 05.4          19.5 GVEF092L01
         K23F02T KC2023 03 20.98695910 35 23.26 +27 05 45.7          19.7 GVEF092L01
         K23F02T KC2023 03 20.99305210 35 11.06 +27 04 00.0          19.3 RoEF092K88
         K23F02T KC2023 03 20.99431710 35 08.72 +27 03 41.3          19.4 RoEF092K88
         K23F02T KC2023 03 20.99558210 35 06.39 +27 03 22.7          19.4 RoEF092K88
         K23F02T KC2023 03 21.01202510 34 40.03 +26 59 56.3          18.8 GXEF092958
         K23F02T KC2023 03 21.01683810 34 31.11 +26 58 45.5          18.8 GXEF092958
         K23F02T KC2023 03 21.01853610 34 25.15 +26 58 09.0          19.8 GVEF092104
         K23F02T KC2023 03 21.02166910 34 22.05 +26 57 33.0          19.4 GXEF092958
         K23F02T KC2023 03 21.02391810 34 15.14 +26 56 47.9                VEF092104
         K23F02T KB2023 03 21.07416610 33 05.066+26 45 13.10         19.4 GXEF092W34
         K23F02T KB2023 03 21.08234610 32 49.522+26 43 14.12         19.3 GXEF092W34
         K23F02T KB2023 03 21.08929910 32 36.300+26 41 32.50         19.2 GXEF092W34
         K23F02T KC2023 03 21.09833410 32 19.98 +26 38 53.4          19.6 GVEF092H21
         K23F02T KC2023 03 21.10026510 32 16.28 +26 38 24.8          19.5 GVEF092H21
         K23F02T KC2023 03 21.10219510 32 12.58 +26 37 56.4          19.4 GVEF092H21
         K23F02T KC2023 03 21.10412310 32 08.89 +26 37 28.0          19.3 GVEF092H21
         K23F02T KC2023 03 21.76428710 09 57.62 +23 20 48.8          19.1 RoEF092K88
         K23F02T KC2023 03 21.76793410 09 49.21 +23 19 33.9          19.2 RoEF092K88
         K23F02T KC2023 03 21.77103310 09 42.02 +23 18 30.3          19.0 RoEF092K88
         K23F02T KB2023 03 21.87493510 05 39.017+22 41 31.42         18.2 GXEF092K74
         K23F02T KB2023 03 21.87995310 05 26.962+22 39 41.22         18.1 GXEF092K74
         K23F02T KB2023 03 21.88281310 05 20.050+22 38 38.94         19.1 GXEF092K74
         K23F02T KB2023 03 21.88598010 05 12.408+22 37 29.17         19.2 GXEF092K74
         K23F02T KB2023 03 21.88923610 05 04.584+22 36 17.17         19.0 GXEF092K74
         K23F02T KB2023 03 21.89389810 04 53.309+22 34 34.00         18.9 GXEF092K74
         K23F02T KB2023 03 21.89887010 04 41.270+22 32 43.66         19.1 GXEF092K74
         K23F02T KB2023 03 21.90313810 04 30.917+22 31 08.58         19.0 GXEF092K74
         K23F02T KC2023 03 21.90682 10 04 20.69 +22 30 06.0          18.8 RrEF092106
         K23F02T KC2023 03 21.91205 10 04 08.01 +22 28 09.1          18.7 RrEF092106
         K23F02T KC2023 03 21.91728 10 03 55.25 +22 26 10.7          18.6 RrEF092106
         K23F02T KC2023 03 21.92250 10 03 42.48 +22 24 12.5          19.0 RrEF092106
         K23F02T 1C2023 03 21.92416 10 03 39.49 +22 23 10.1          19.4 VXEF092033
         K23F02T 1C2023 03 21.92444 10 03 38.80 +22 23 03.7          19.5 VXEF092033
         K23F02T 1C2023 03 21.92473 10 03 38.11 +22 22 57.2          19.4 VXEF092033
         K23F02T $C2023 03 21.94777910 02 50.250+22 16 26.84         19.5 GVEF092J04
         K23F02T $C2023 03 21.94848710 02 48.496+22 16 10.86         19.4 GVEF092J04
         K23F02T hC2023 03 21.97506310 01 33.37 +22 04 08.6          19.6 GVEF092L01
         K23F02T hC2023 03 21.97733810 01 27.73 +22 03 15.3          19.7 GVEF092L01
         K23F02T hC2023 03 21.97961410 01 22.13 +22 02 21.9          19.8 GVEF092L01
         K23F02T hC2023 03 21.98265310 01 14.65 +22 01 11.0          19.6 GVEF092L01
         K23F02T hC2023 03 21.98493010 01 08.98 +22 00 17.2          19.7 GVEF092L01
         K23F02T hC2023 03 21.98721110 01 03.39 +21 59 23.7          19.6 GVEF092L01
    
    Observer details:
    033 Karl Schwarzschild Observatory, Tautenburg.  Observers S. Melnikov, C.
        Hoegner, F. Ludwig, B. Stecklum.  Measurer B. Stecklum.  1.34-m f/3
        Schmidt + CCD.
    104 San Marcello Pistoiese.  Observers P. Bacci, M. Maestripieri.  Measurer P.
        Bacci.  0.60-m f/4.0 reflector + CCD.
    106 Crni Vrh.  Observer S. Maticic.  Measurer H. Mikuz.  0.6-m f/3.3
        Deltagraph + CCD.
    958 Observatoire de Dax.  Observers P. Dupouy, J. B. de Vanssay.  Measurer P.
        Dupouy.  0.43-m f/2.7 Reflector + CCD.
    H21 Astronomical Research Observatory, Westfield.  Observer R. Holmes.
        Measurers T. Linder, R. Holmes, L. Horn.  0.76-m f/3.0 astrograph + CCD.
    I93 St Pardon de Conques.  Observer F. Losse.  0.40-m f/3.7 reflector + CCD.
    J04 ESA Optical Ground Station, Tenerife.  Observers P. Ruiz, M. Micheli, F.
        Ocana, L. Conversi.  Measurers F. Ocana, M. Micheli, R. Kresken, A.
        Knofel, M. Busch.  1.0-m f/4.4 reflector + CCD.
    K74 Muensterschwarzach Observatory, Schwarzach.  Observer C. Gerhard.  0.30-m
        f/3.75 reflector + CMO.
    K88 GINOP-KHK, Piszkesteto.  Observer K. Sarneczky.  0.60-m Schmidt + CCD.
    L01 Visnjan Observatory, Tican.  Observer K. Korlevic.  1.0-m f/2.9 reflector
        + CCD.
    W34 Squirrel Valley Observatory, Columbus.  Observer R. L. Flynn.  0.36-m
        f/1.9 Aplanatic Schmidt Cassegrain + CMO.
    
    Orbital elements:
    2023 FT2                                                 Earth MOID = 0.0108 AU
    Epoch 2023 Feb. 25.0 TT = JDT 2460000.5                 Veres                   
    M 306.24419              (2000.0)            P               Q                  
    n   0.68009286     Peri.  248.05704     -0.36133848     +0.93242763             
    a   1.2806307      Node     0.78841     -0.72793498     -0.27965179             
    e   0.3334678      Incl.   15.31975     -0.58270504     -0.22885278             
    P   1.45           H   25.98          G   0.15           U   7                  
    Residuals in seconds of arc
    230320 K88  0.1-  0.0     230321 958  0.4-  0.0     230321 K74  0.3+  0.1+
    230320 K88  0.0   0.2+    230321 958  0.8+  0.2+    230321 K74  0.1+  0.1+
    230320 K88  0.5-  0.6-    230321 104  0.1+  0.6+    230321 K74  0.0   0.1+
    230320 K88  0.7-  0.2-    230321 958  0.6+  0.9-    230321 K74  0.2-  0.1+
    230320 K88  0.1+  0.1+    230321 104  0.2+  0.3-    230321 106  0.9-  0.4-
    230320 K88  0.5+  0.2+    230321 W34  1.3-  0.2+    230321 106  0.1-  0.1-
    230320 K88  0.2-  0.0     230321 W34  0.7-  0.2+    230321 106  0.1-  0.8-
    230320 I93  0.1+  0.3+    230321 W34  0.4+  0.3+    230321 106  0.4-  1.1-
    230320 I93  0.0   0.0     230321 H21  0.0   0.0     230321 033  0.1-  0.1+
    230320 I93  0.1+  0.0     230321 H21  0.0   0.1-    230321 033  0.2-  0.0
    230320 L01  0.0   0.2+    230321 H21  0.0   0.1-    230321 033  0.0   0.1+
    230320 L01  0.3-  0.1+    230321 H21  0.1+  0.0     230321 J04  0.1+  0.0
    230320 L01  0.3-  0.1+    230321 K88  0.1-  0.4+    230321 J04  0.3+  0.1+
    230320 L01  0.3-  0.1-    230321 K88  0.1+  0.1+    230321 L01  0.1-  0.0
    230320 L01  0.2-  0.0     230321 K88  0.2-  0.1+    230321 L01  0.4-  0.1-
    230320 L01  0.0   0.1+    230321 K74  0.0   0.1-    230321 L01  0.1-  0.1-
    230320 K88  0.1+  0.3+    230321 K74  0.2+  0.3-    230321 L01  0.2+  0.3+
    230320 K88  0.0   0.2+    230321 K74  0.1-  0.3+    230321 L01  0.4-  0.0
    230320 K88  0.0   0.2+    230321 K74  0.2-  0.3+    230321 L01  0.3+  0.2+
    
    Ephemeris:
    2023 FT2                 a,e,i = 1.28, 0.33, 15                  q = 0.8536
    Date    TT    R. A. (2000) Decl.     Delta      r    Elong.  Phase     V
    2023 02 20    12 43 11.6 +36 04 51   0.2372  1.1749   137.7    34.5    24.6
    ...
    2023 03 07    12 33 44.4 +37 07 29   0.1251  1.0944   142.9    33.2    23.1
    ...
    2023 03 15    12 03 30.5 +35 53 10   0.06901 1.0522   146.0    31.9    21.6
    ...
    2023 03 21    10 35 08.8 +27 04 31   0.03039 1.0213   146.3    32.8    19.8
    2023 03 22    10 00 45.6 +21 57 23   0.02508 1.0163   142.8    36.3    19.5
    2023 03 23    09 14 38.7 +13 42 04   0.02078 1.0113   135.1    44.1    19.3
    ...
    2023 03 29    03 51 35.2 -37 49 14   0.03556 0.9821    62.2   115.9    23.2
    ...
    2023 04 06    02 15 24.6 -40 19 02   0.08799 0.9460    49.8   126.1    25.9
    ...
    2023 04 21    01 38 51.9 -37 29 30   0.1923  0.8910    49.2   121.4    27.1
    
    M. P. C. Staff               (C) Copyright 2023 MPC           M.P.E.C. 2023-F92
    


    Read MPEC 2023-F91 Read MPEC 2023-F93


    MPEC number:

    Enter an MPEC number in one of the following forms:

    • 1997-B01 (the full form)
    • J97B01 (the packed version of the full form)
    • B01 (the abbreviated form)